Back to catalog

STARLINK-32320

AliveCommunicationsVLEO
NORAD 61638·PAYLOAD·🇺🇸 United States

Launched Oct 23, 2024 from Cape Canaveral Space Force Station

Loading…

Next Passes (next 24 hours)

TLE

FreshSource: CelesTrak SupGP

Epoch: Sep 14, 2026, 22:33 UTC

1 61638C 24191T   26257.94006944 -.00038778  00000+0 -14046-2 0  2577
2 61638  43.0012 169.6129 0001395 266.8335 135.2510 15.27596756    12

Track STARLINK-32320 in real time with AllMySat

Download on the App Store